Waarnemingen

Advertentie
Mijn weer
Ahaus, Duitsland (10309): temperatuur & dauwpunt: 14.10.2018 22:00:00 - 20.10.2018 22:00:00 (CEST)Ahaus, Duitsland (10309): temperatuur 5cm & temperatuur -5cm: 14.10.2018 22:00:00 - 20.10.2018 22:00:00 (CEST)Ahaus, Duitsland (10309): temperatuur -20cm & temperatuur -100cm: 14.10.2018 22:00:00 - 20.10.2018 22:00:00 (CEST)Ahaus, Duitsland (10309): windsnelheid & windstoten: 14.10.2018 22:00:00 - 20.10.2018 22:00:00 (CEST)Ahaus, Duitsland (10309): windrichting: 14.10.2018 22:00:00 - 20.10.2018 22:00:00 (CEST)Ahaus, Duitsland (10309): luchtdruk: 14.10.2018 22:00:00 - 20.10.2018 22:00:00 (CEST)Ahaus, Duitsland (10309): zicht: 14.10.2018 22:00:00 - 20.10.2018 22:00:00 (CEST)Ahaus, Duitsland (10309): Zonneschijnduur: 14.10.2018 22:00:00 - 20.10.2018 22:00:00 (CEST)Ahaus, Duitsland (10309): neerslag: 14.10.2018 22:00:00 - 20.10.2018 22:00:00 (CEST)
Datum & Tijd tt [°C] td [°C] tt 5cm [°C] tt -5cm [°C] tt -20cm [°C] tt -100cm [°C] ff [km/u] ff [kn] fx [km/u] fx [kn] dd ppp [hPa] vv [km] sd [min] rr [mm]
20.10.2018 22:00:00 5,4 4,7 2,3 10,6 13,1 14,6 0 0 5 3 N 1031,5 4,5 0 0,0
20.10.2018 21:00:00 6,5 5,6 2,9 11,3 13,3 14,6 3 2 19 10 ZO 1031,1 7 0 0,0
20.10.2018 20:00:00 7,8 5,9 3,9 12,3 13,4 14,7 0 0 19 10 N 1030,8 13 0 0,0
20.10.2018 19:00:00 10,8 6,8 5,6 13,6 13,4 14,7 3 2 8 4 ZZW 1030,7 17 0 0,0
20.10.2018 18:00:00 13,8 6,9 12,2 15,0 13,2 14,7 6 3 14 8 NW 1030,8 25 53 0,0
20.10.2018 17:00:00 14,4 6,6 16,1 15,7 13,0 14,7 10 5 20 11 NW 1030,9 28 57 0,0
20.10.2018 16:00:00 14,8 6,2 18,7 15,9 12,6 14,7 9 5 17 9 WNW 1030,8 21 59 0,0
20.10.2018 15:00:00 14,5 5,4 17,6 15,8 12,2 14,7 8 5 20 11 W 1031,1 26 60 0,0
20.10.2018 14:00:00 14,3 5,4 18,1 15,2 11,7 14,7 9 5 14 8 W 1031,3 21 60 0,0
20.10.2018 13:00:00 13,3 4,6 17,4 13,5 11,3 14,7 7 4 15 8 WZW 1031,6 15 60 0,0
20.10.2018 12:00:00 11,4 5,9 16,1 11,6 11,1 14,7 8 4 13 7 WZW 1031,5 7 60 0,0
20.10.2018 11:00:00 8,2 5,7 12,3 9,2 11,1 14,7 7 4 10 5 Z 1031,5 6 50 0,0
20.10.2018 10:00:00 3,9 3,4 5,0 8,0 11,2 14,7 5 3 20 11 ZO 1031,5 3,1 11 0,0
20.10.2018 09:00:00 1,8 1,7 1,7 7,5 11,4 14,8 5 3 23 12 ZO 1030,7 1,6 0 0,0
20.10.2018 08:00:00 0,6 0,3 -0,3 7,5 11,6 14,8 8 4 22 12 ZZO 1029,9 2,5 0 0,0
20.10.2018 07:00:00 0,8 0,7 -1,0 7,7 11,8 14,8 4 2 22 12 NNW 1029,8 0,2 0 0,0
20.10.2018 06:00:00 1,2 1,0 -0,9 8,1 12,0 14,8 11 6 21 11 OZO 1029,4 0,1 0 0,0
20.10.2018 05:00:00 2,4 2,1 -1,3 8,5 12,2 14,8 3 2 14 7 OZO 1028,4 1,1 0 0,0
20.10.2018 04:00:00 4,9 4,7 1,4 9,1 12,4 14,8 6 3 21 11 O 1028,6 2,8 0 0,0
20.10.2018 03:00:00 3,9 3,6 3,8 8,9 12,6 14,8 5 3 7 4 NNW 1028,6 5 0 0,0
20.10.2018 02:00:00 2,6 2,2 0,4 9,1 12,9 14,8 5 3 20 11 OZO 1027,7 3,2 0 0,0
20.10.2018 01:00:00 3,0 2,5 0,1 9,4 13,1 14,8 3 2 20 11 ZZO 1027,7 4,9 0 0,0
20.10.2018 00:00:00 3,9 3,8 0,1 9,8 13,4 14,8 4 2 19 10 N 1027,4 6 0 0,0
19.10.2018 23:00:00 4,3 3,7 1,3 10,4 13,7 14,8 4 2 5 3 NNO 1027,2 6 0 0,0
19.10.2018 22:00:00 4,9 3,8 0,9 11,1 14,0 14,8 2 1 13 7 NNO 1026,8 15 0 0,0
19.10.2018 21:00:00 5,9 4,0 2,1 11,9 14,2 14,9 10 5 19 10 O 1026,4 17 0 0,0
19.10.2018 20:00:00 8,2 5,1 4,0 13,0 14,4 14,9 5 3 9 5 N 1026,0 25 0 0,0
19.10.2018 19:00:00 11,7 6,3 8,5 14,4 14,4 14,9 8 4 14 7 NO 1025,1 29 0 0,0
19.10.2018 18:00:00 13,4 6,6 12,2 15,9 14,3 14,9 8 5 14 8 NNO 1024,8 29 55 0,0
19.10.2018 17:00:00 14,6 6,3 17,4 16,9 14,0 14,9 9 5 15 8 NO 1024,5 29 60 0,0
19.10.2018 16:00:00 14,8 5,6 19,0 17,4 13,7 14,9 11 6 19 10 NO 1024,8 31 60 0,0
19.10.2018 15:00:00 14,5 5,6 18,8 16,7 13,3 14,9 9 5 18 10 ONO 1025,2 38 60 0,0
19.10.2018 14:00:00 14,0 5,7 18,5 15,5 12,9 14,9 11 6 20 11 O 1025,3 19 60 0,0
19.10.2018 13:00:00 12,9 5,9 16,4 14,2 12,6 14,9 14 8 26 14 ONO 1025,8 26 60 0,0
19.10.2018 12:00:00 11,5 6,4 14,1 12,5 12,5 14,9 10 6 24 13 O 1026,2 22 49 0,0
19.10.2018 11:00:00 9,9 6,9 12,3 11,2 12,5 14,9 9 5 14 8 ONO 1026,3 15 23 0,0
19.10.2018 10:00:00 8,1 6,2 8,8 10,3 12,5 14,9 8 5 15 8 NO 1026,4 10 45 0,0
19.10.2018 09:00:00 6,3 5,2 6,4 9,5 12,6 14,9 7 4 11 6 NO 1026,2 6 15 0,0
19.10.2018 08:00:00 6,5 5,5 4,9 9,8 12,8 14,9 9 5 15 8 NO 1025,8 8 0 0,0
19.10.2018 07:00:00 7,5 6,2 6,5 9,9 12,9 14,9 10 5 14 8 NO 1025,7 13 0 0,0
19.10.2018 06:00:00 7,0 6,2 6,4 9,4 13,1 14,9 7 4 11 6 NO 1025,7 12 0 0,0
19.10.2018 05:00:00 6,4 5,6 2,9 9,3 13,3 14,9 8 4 13 7 NNO 1025,7 13 0 0,0
19.10.2018 04:00:00 4,9 4,6 1,0 9,7 13,6 14,9 7 4 10 5 NNO 1025,8 8 0 0,0
19.10.2018 03:00:00 5,2 4,5 1,6 10,3 13,8 14,9 3 2 9 5 NO 1025,9 8 0 0,0
19.10.2018 02:00:00 7,7 6,0 4,6 10,8 14,1 14,9 7 4 16 9 NNO 1025,9 23 0 0,0
19.10.2018 01:00:00 8,6 6,5 6,4 11,1 14,3 14,9 10 6 15 8 NNO 1026,1 24 0 0,0
19.10.2018 00:00:00 8,7 6,6 5,7 11,6 14,6 14,9 8 4 15 8 NNO 1026,3 21 0 0,0
18.10.2018 23:00:00 9,5 7,0 6,8 12,1 14,8 14,9 8 4 16 9 NNO 1026,3 22 0 0,0
18.10.2018 22:00:00 10,3 7,2 7,7 12,7 15,0 14,9 9 5 15 8 NO 1026,0 26 0 0,0
18.10.2018 21:00:00 11,1 7,6 8,2 13,5 15,2 14,9 7 4 16 9 NNO 1025,8 38 0 0,0
18.10.2018 20:00:00 12,7 8,1 10,2 14,4 15,3 14,9 11 6 24 13 NNO 1025,3 40 0 0,0
18.10.2018 19:00:00 13,7 9,4 12,1 15,3 15,3 14,9 5 3 15 8 NNO 1024,8 39 0 0,0
18.10.2018 18:00:00 14,8 9,5 15,2 15,9 15,2 14,9 7 4 18 10 NNO 1024,3 40 39 0,0
18.10.2018 17:00:00 14,9 9,5 15,5 16,0 15,2 14,9 12 6 21 11 N 1024,3 36 0 0,0
18.10.2018 16:00:00 15,0 10,4 15,7 16,4 15,0 14,9 12 6 23 12 NNO 1024,4 31 11 0,0
18.10.2018 15:00:00 15,0 11,4 17,0 15,6 14,9 14,9 12 6 18 10 NNO 1024,4 22 6 0,0
18.10.2018 14:00:00 14,1 12,7 14,8 15,3 14,8 14,9 9 5 21 11 N 1024,6 14 0 0,3
18.10.2018 13:00:00 13,5 12,6 13,8 15,1 14,8 14,9 15 8 21 12 N 1024,8 3,2 0 0,1
18.10.2018 12:00:00 14,0 12,2 14,8 14,7 14,7 14,9 11 6 21 11 NNO 1024,6 11 0 0,0
18.10.2018 11:00:00 12,6 12,0 13,2 14,1 14,7 14,9 6 4 19 10 N 1024,1 4,5 0 0,3
18.10.2018 10:00:00 11,4 11,2 12,5 13,3 14,8 14,9 4 2 8 5 NNW 1024,0 0,4 3 0,0
18.10.2018 09:00:00 9,6 9,3 7,8 12,8 15,0 14,9 4 2 20 11 WNW 1023,6 3,5 0 0,0
18.10.2018 08:00:00 9,5 9,3 5,3 13,1 15,2 14,9 4 2 10 5 NNW 1023,0 0,5 0 0,0
18.10.2018 07:00:00 10,6 10,1 7,3 13,7 15,4 14,9 6 4 8 4 NW 1022,8 7 0 0,0
18.10.2018 06:00:00 12,4 10,5 10,2 14,5 15,4 14,9 7 4 14 8 N 1022,6 12 0 0,0
18.10.2018 05:00:00 13,6 11,2 13,3 14,8 15,5 14,9 10 5 14 8 NNW 1022,4 11 0 0,0
18.10.2018 04:00:00 13,8 11,6 13,4 14,9 15,6 14,9 5 3 10 5 N 1022,3 10 0 0,0
18.10.2018 03:00:00 13,9 12,0 13,4 14,9 15,6 14,9 6 4 15 8 N 1022,1 7 0 0,1
18.10.2018 02:00:00 14,0 12,2 13,5 14,9 15,7 14,9 7 4 10 6 N 1021,8 7 0 0,0
18.10.2018 01:00:00 13,8 12,2 13,3 14,8 15,9 14,9 6 3 9 5 NNW 1021,6 7 0 0,0
18.10.2018 00:00:00 13,0 11,7 12,2 14,6 16,1 14,9 6 3 8 5 NNW 1021,5 6 0 0,0
17.10.2018 23:00:00 13,8 11,8 11,1 15,0 16,3 14,9 6 3 11 6 N 1021,0 9 0 0,0
17.10.2018 22:00:00 13,8 11,8 10,2 15,3 16,5 14,8 6 3 9 5 N 1020,8 9 0 0,0
17.10.2018 21:00:00 14,6 11,9 10,1 16,1 16,7 14,8 5 3 11 6 N 1020,4 9 0 0,0
17.10.2018 20:00:00 15,9 12,6 12,9 16,9 16,8 14,8 8 5 14 8 NNW 1020,0 7 0 0,0
17.10.2018 19:00:00 16,9 13,0 13,9 18,0 16,8 14,8 7 4 14 8 NNW 1019,4 6 0 0,0
17.10.2018 18:00:00 19,1 12,8 17,8 19,3 16,7 14,8 9 5 14 8 NNW 1018,9 7 44 0,0
17.10.2018 17:00:00 20,2 12,6 21,5 20,4 16,4 14,8 10 6 17 9 NNW 1018,6 7 60 0,0
17.10.2018 16:00:00 21,2 11,0 24,7 20,6 16,0 14,8 6 3 10 6 W 1018,6 8 60 0,0
17.10.2018 15:00:00 21,0 11,0 24,6 20,3 15,6 14,8 6 3 13 7 WNW 1018,6 6 60 0,0
17.10.2018 14:00:00 19,8 11,1 23,0 19,1 15,2 14,8 7 4 12 7 W 1019,0 7 60 0,0
17.10.2018 13:00:00 18,3 10,7 22,8 17,6 14,9 14,8 7 4 13 7 W 1019,3 8 60 0,0
17.10.2018 12:00:00 18,1 10,6 21,6 15,9 14,7 14,8 7 4 15 8 W 1019,3 9 60 0,0
17.10.2018 11:00:00 16,4 10,5 19,2 14,2 14,7 14,8 8 4 10 6 ZZW 1019,1 11 51 0,0
17.10.2018 10:00:00 14,0 10,7 14,5 13,2 14,8 14,8 5 3 7 4 Z 1018,9 10 20 0,0
17.10.2018 09:00:00 11,2 9,5 10,0 12,6 14,9 14,8 7 4 9 5 ZZO 1018,8 7 2 0,0
17.10.2018 08:00:00 10,2 9,3 6,6 12,7 15,1 14,8 4 2 5 3 ZO 1018,6 7 0 0,0
17.10.2018 07:00:00 10,8 9,1 7,2 13,1 15,3 14,8 3 2 5 3 Z 1018,4 8 0 0,0
17.10.2018 06:00:00 12,9 9,6 8,4 13,3 15,4 14,8 5 3 10 5 Z 1018,3 11 0 0,0
17.10.2018 05:00:00 13,6 10,3 7,9 13,5 15,6 14,8 5 3 8 4 Z 1018,0 11 0 0,0
17.10.2018 04:00:00 13,3 10,5 8,7 13,9 15,8 14,8 4 2 6 4 ZZO 1018,2 10 0 0,0
17.10.2018 03:00:00 14,2 10,4 9,2 14,1 16,0 14,7 5 3 9 5 ZZO 1018,4 11 0 0,0
17.10.2018 02:00:00 14,0 10,6 8,7 14,3 16,2 14,7 5 3 8 4 ZZO 1018,5 11 0 0,0
17.10.2018 01:00:00 12,7 10,2 8,7 14,8 16,5 14,7 6 3 8 4 ZO 1018,8 9 0 0,0
17.10.2018 00:00:00 13,6 10,8 9,2 15,3 16,7 14,7 2 1 7 4 OZO 1018,9 10 0 0,0
16.10.2018 23:00:00 13,6 10,7 11,1 15,7 16,9 14,7 6 3 8 4 ZO 1019,1 12 0 0,0
16.10.2018 22:00:00 12,9 10,7 10,1 16,0 17,2 14,7 5 3 6 3 OZO 1019,2 11 0 0,0
16.10.2018 21:00:00 12,9 10,1 9,2 16,8 17,4 14,7 5 3 6 3 OZO 1019,2 14 0 0,0
16.10.2018 20:00:00 15,5 11,5 10,7 17,9 17,5 14,7 3 2 4 2 OZO 1019,0 16 0 0,0
16.10.2018 19:00:00 18,1 11,8 13,4 19,2 17,5 14,7 3 1 6 4 ZO 1018,6 24 0 0,0
16.10.2018 18:00:00 23,0 10,3 20,0 20,7 17,4 14,7 5 3 7 4 Z 1018,3 32 29 0,0
16.10.2018 17:00:00 23,6 9,9 23,2 21,6 17,1 14,7 7 4 13 7 ZZO 1018,2 27 33 0,0
16.10.2018 16:00:00 24,7 10,0 27,4 22,3 16,7 14,7 10 5 17 9 ZZO 1018,2 26 60 0,0
16.10.2018 15:00:00 24,7 9,0 28,5 22,0 16,2 14,7 6 3 13 7 Z 1018,3 32 60 0,0
16.10.2018 14:00:00 24,6 10,7 28,0 21,2 15,7 14,7 5 3 13 7 WZW 1018,5 23 60 0,0
16.10.2018 13:00:00 22,6 11,2 27,0 19,7 15,3 14,7 9 5 12 7 ZO 1018,7 17 60 0,0
16.10.2018 12:00:00 21,3 11,3 25,3 17,6 15,0 14,7 7 4 11 6 Z 1018,7 14 59 0,0
16.10.2018 11:00:00 18,8 10,5 22,3 15,3 15,0 14,7 3 2 10 6 Z 1018,6 12 60 0,0
16.10.2018 10:00:00 15,8 10,1 18,1 13,9 15,1 14,7 5 3 11 6 ZZW 1018,6 13 60 0,0
16.10.2018 09:00:00 11,1 10,0 10,9 13,2 15,2 14,6 5 3 8 4 ZZO 1018,3 6 10 0,0
16.10.2018 08:00:00 9,7 8,9 7,2 13,5 15,4 14,6 4 2 6 3 ZZO 1017,9 5 0 0,0
16.10.2018 07:00:00 10,9 9,5 8,5 14,0 15,5 14,6 5 3 6 3 ZO 1017,4 6 0 0,0
16.10.2018 06:00:00 13,0 10,9 10,2 14,6 15,7 14,6 0 0 4 2 N 1017,2 10 0 0,0
16.10.2018 05:00:00 13,6 11,1 12,4 14,8 15,8 14,6 4 2 5 3 ZZO 1017,0 10 0 0,0
16.10.2018 04:00:00 13,3 11,2 12,4 14,9 15,9 14,6 4 2 18 10 ZO 1016,7 11 0 0,0
16.10.2018 03:00:00 13,3 11,1 12,0 14,9 16,0 14,6 0 0 19 10 N 1016,4 12 0 0,0
16.10.2018 02:00:00 12,8 10,6 12,3 14,9 16,2 14,6 2 1 5 3 ZO 1016,0 14 0 0,0
16.10.2018 01:00:00 12,4 10,6 11,2 14,9 16,4 14,6 3 2 5 3 ZZW 1015,6 14 0 0,0
16.10.2018 00:00:00 12,6 10,9 9,3 15,4 16,6 14,6 3 2 17 9 ZZO 1015,4 13 0 0,0
15.10.2018 23:00:00 13,0 10,5 10,4 15,9 16,8 14,6 3 1 19 10 ZZO 1015,3 16 0 0,0
15.10.2018 22:00:00 14,7 11,2 11,0 16,6 17,0 14,6 2 1 19 10 OZO 1014,8 19 0 0,0
15.10.2018 21:00:00 16,0 11,6 13,0 17,4 17,2 14,6 4 2 19 10 OZO 1014,4 21 0 0,0
15.10.2018 20:00:00 16,5 10,9 13,7 18,1 17,3 14,6 3 1 19 10 OZO 1014,3 25 0 0,0
15.10.2018 19:00:00 19,6 11,3 14,6 19,5 17,2 14,6 8 4 19 10 OZO 1013,9 29 9 0,0
15.10.2018 18:00:00 23,5 10,9 22,5 20,9 17,0 14,6 9 5 20 11 ZW 1013,1 29 37 0,0
15.10.2018 17:00:00 24,0 10,9 24,2 21,4 16,7 14,5 11 6 24 13 ZW 1012,8 37 53 0,0
15.10.2018 16:00:00 24,6 11,2 26,6 21,7 16,3 14,5 13 7 24 13 ZW 1012,3 31 57 0,0
15.10.2018 15:00:00 24,3 11,3 27,1 21,3 15,9 14,5 13 7 25 14 ZW 1012,3 40 60 0,0
15.10.2018 14:00:00 23,9 11,6 26,9 20,3 15,4 14,5 13 7 25 14 ZW 1012,4 34 60 0,0
15.10.2018 13:00:00 23,1 10,2 26,2 18,8 15,1 14,5 16 9 29 15 ZZW 1012,4 27 60 0,0
15.10.2018 12:00:00 22,0 9,5 24,5 17,1 14,8 14,5 19 10 30 16 ZZW 1012,3 20 60 0,0
15.10.2018 11:00:00 20,1 9,5 22,6 15,2 14,7 14,5 14 7 22 12 ZZO 1012,3 29 60 0,0
15.10.2018 10:00:00 17,9 9,2 19,1 13,7 14,8 14,5 11 6 16 9 ZZO 1011,9 28 60 0,0
15.10.2018 09:00:00 15,2 9,2 14,0 12,9 14,9 14,5 8 4 15 8 Z 1011,5 23 17 0,0
15.10.2018 08:00:00 13,6 8,9 9,6 12,9 15,1 14,5 10 6 14 7 ZZO 1011,3 23 0 0,0
15.10.2018 07:00:00 13,4 9,4 8,9 13,2 15,3 14,5 7 4 11 6 ZZO 1010,8 21 0 0,0
15.10.2018 06:00:00 12,9 9,5 8,0 13,5 15,5 14,4 4 2 12 7 Z 1010,5 20 0 0,0
15.10.2018 05:00:00 13,8 9,5 8,7 13,8 15,7 14,4 6 4 10 5 ZO 1010,4 22 0 0,0
15.10.2018 04:00:00 15,2 9,6 10,6 14,2 15,9 14,4 7 4 12 7 ZZO 1010,3 25 0 0,0
15.10.2018 03:00:00 15,5 9,7 11,7 14,5 16,1 14,4 8 5 13 7 ZZO 1010,2 28 0 0,0
15.10.2018 02:00:00 15,8 9,8 12,0 14,9 16,3 14,4 9 5 14 8 ZZO 1010,0 31 0 0,0
15.10.2018 01:00:00 16,5 10,0 13,2 15,3 16,4 14,4 11 6 14 8 ZZO 1009,8 32 0 0,0
15.10.2018 00:00:00 17,7 10,2 13,3 15,8 16,6 14,4 8 5 19 10 ZZO 1009,7 36 0 0,0
14.10.2018 23:00:00 18,7 10,2 15,7 16,3 16,8 14,4 12 6 20 11 ZZO 1009,5 39 0 0,0
14.10.2018 22:00:00 18,7 10,1 15,1 16,7 17,0 14,4 12 6 18 10 ZO 1009,3 38 0 0,0

tt = temperatuur
td = dauwpunt
tt 5cm = temperatuur 5cm
tt -5cm = temperatuur -5cm
tt -20cm = temperatuur -20cm
tt -100cm = temperatuur -100cm
ff = windsnelheid
fx = windstoten
dd = windrichting
ppp = luchtdruk
vv = zicht
sd = Zonneschijnduur
rr = neerslag

Weerstations in de omgeving